Back to catalog

RBSP B

AliveScienceHEO
NORAD 38753·PAYLOAD·🇺🇸 United States

Launched Aug 30, 2012 from Cape Canaveral Space Force Station

Loading…

Next Passes (next 24 hours)

TLE

FreshSource: Space-Track

Epoch: Sep 12, 2026, 15:55 UTC

1 38753U 12046B   26255.66382688  .00009938  00000-0  89982-3 0  9994
2 38753  10.2899  73.9382 6388247 276.4443  19.4154  3.50856444147619

Track RBSP B in real time with AllMySat

Download on the App Store